Погода в Туринске

Россия / Свердловская область     58°02′21″N   63°41′53″E
темп.,
°C
ветер,
м/с
пор.,
м/с
влажн.,
%
обл.,
%
осадки,
мм/ч
давл.,
гПа
погр.,
м
14 августа, вс
вс1423:00+13сз310635 0.0 1014284
02:00+11сз411714 0.0 1015366
05:00+9зсз411815 0.0 1016280
08:00+13сз59675 0.0 1017479
11:00+17сз694916 0.0 10171705
14:00+19сз5844100 0.0 10172417
17:00+19ссз6946100 0.0 10182167
20:00+14сз376636 0.0 1019146
15 августа, пн
пн1523:00+10зсз347817 0.0 101954
02:00+9сз23875 0.0 102040
05:00+8сз23935 0.0 102156
08:00+13ссз24695 0.0 1021320
11:00+17сз365120 0.0 10211579
14:00+19сз564111 0.0 10202074
17:00+19ссз564118 0.0 10202101
20:00+13сз226337 0.0 102010
16 августа, вт
вт1623:00+14зюз225789 0.0 102035
02:00+10зсз357896 0.0 102075
05:00+13з396870 0.0 1019250
08:00+14сз59733 0.0 1020546
11:00+18сз58430 0.0 10201810
14:00+20сз710366 0.0 10192615
17:00+20ссз610395 0.0 10192436
20:00+14ссз366031 0.0 1020109
17 августа, ср
ср1723:00+12ссв116593 0.0 102211
02:00+9с227828 0.0 102224
05:00+9ссз2275100 0.0 102353
08:00+12сз356166 0.0 1022257
11:00+16сз574682 0.0 10211799
14:00+16сз5651100 0.0 10201664
17:00+15сз4655100 0.0 10201363
20:00+12сз376882 0.0 1020168
18 августа, чт
чт1823:00+9сз358994 0.1 102074
02:00+7ссз34965 0.0 102075
05:00+5с35880 0.0 102182
08:00+9с49580 0.0 1022496
11:00+14ссв57405 0.0 10221689
14:00+16ссв573655 0.0 10212157
17:00+14св675168 0.0 10231398
20:00+10ссв31068100 0.0 1024659